Location: Kazanice
(53.5528°N, 19.7258°E)
Time: 11:20:04
(UTC+01:00)

ISS - Pass Details

Date: 31 January 2019
Orbit: 403 x 411 km, 51.6° (Epoch: 22 February)

Event Time Altitude Azimuth Distance (km) Brightness Sun altitude
Rises 18:10:09 0° 264° (W) 2,335 1.9 -16.1°
Reaches altitude 10° 18:12:14 10° 261° (W) 1,476 0.4 -16.5°
Maximum altitude 18:15:31 63° 180° (S) 463 -3.6 -16.9°
Enters shadow 18:16:20 44° 120° (ESE) 578 -3.5 -17.1°
